Salina, KS

7:43 AM CDT on July 20, 2017 (GMT -0500)
Salina Municipal

Weather History for KSLN - December, 2011

Change the Weather History Date:

Thursday, December 29, 2011

  Actual Average Record
Temperature  
Mean Temperature 42 °F 31 °F  
Max Temperature 55 °F 41 °F 71 °F (1999)
Min Temperature 29 °F 21 °F -8 °F (1983)
Degree Days  
Heating Degree Days 23 34  
Month to date heating degree days 922 942  
Since 1 July heating degree days 1846 1894  
Cooling Degree Days 0 0  
Month to date cooling degree days 0 0  
Year to date cooling degree days 2003 1647  
Moisture  
Dew Point 34 °F    
Average Humidity 72    
Maximum Humidity 85    
Minimum Humidity 59    
Precipitation  
Precipitation T in 0.02 in 0.70 in (2006)
Month to date precipitation 2.27 0.90  
Year to date precipitation 21.77 31.46  
Sea Level Pressure  
Sea Level Pressure 29.75 in    
Wind  
Wind Speed 8 mph (SW)    
Max Wind Speed 28 mph    
Max Gust Speed 33 mph    
Visibility 10 miles    
Events      
T = Trace of Precipitation, MM = Missing Value Source: NWS Daily Summary

Daily Weather History Graph

Daily Weather History Graph

Search for Another Location

Airport or City:

Trip Planner

Search our weather history database for the weather conditions in past years. The results will help you decide how hot, cold, wet, or windy it might be!

Date:

Astronomy

Dec. 29, 2011 Rise Set
Actual Time 7:48 AM CST 5:17 PM CST
Civil Twilight 7:18 AM CST 5:46 PM CST
Nautical Twilight 6:45 AM CST 6:20 PM CST
Astronomical Twilight 6:12 AM CST 6:52 PM CST
Moon 10:45 AM CST (12/29) 10:51 PM CST (12/29)
Length of Visible Light 10h 28m
Length of Day
9h 28m
Waxing Crescent, 27% of the Moon is Illuminated
Dec 29
Waxing Crescent
Jan 1
First Quarter
Jan 9
Full
Jan 16
Last Quarter
Jan 23
New

Hourly Weather History & Observations

Time (CST) Temp. Windchill Dew Point Humidity Pressure Visibility Wind Dir Wind Speed Gust Speed Precip Events Conditions
12:53 AM 30.2 °F 24.3 °F 26.6 °F 86% 29.86 in 10.0 mi South 5.8 mph - N/A   Clear
1:53 AM 32.0 °F 26.4 °F 26.1 °F 79% 29.87 in 10.0 mi SSW 5.8 mph - N/A   Clear
2:53 AM 33.1 °F 26.1 °F 27.0 °F 78% 29.86 in 10.0 mi SW 8.1 mph - N/A   Clear
3:53 AM 32.0 °F 25.6 °F 27.0 °F 82% 29.84 in 10.0 mi SSW 6.9 mph - N/A   Clear
4:53 AM 32.0 °F 24.8 °F 27.0 °F 82% 29.84 in 10.0 mi SW 8.1 mph - N/A   Clear
5:53 AM 34.0 °F 28.0 °F 28.0 °F 79% 29.84 in 10.0 mi WSW 6.9 mph - N/A   Clear
6:53 AM 36.0 °F 30.3 °F 28.0 °F 73% 29.84 in 10.0 mi WSW 6.9 mph - N/A   Clear
7:53 AM 33.1 °F 27.7 °F 28.0 °F 82% 29.84 in 10.0 mi SW 5.8 mph - N/A   Clear
8:53 AM 35.1 °F - 30.0 °F 82% 29.84 in 10.0 mi Calm Calm - N/A   Clear
9:53 AM 41.0 °F 37.1 °F 32.0 °F 70% 29.86 in 10.0 mi SW 5.8 mph - N/A   Clear
10:53 AM 44.6 °F - 33.8 °F 66% 29.80 in 10.0 mi Calm Calm - N/A   Clear
11:53 AM 46.0 °F 43.1 °F 34.0 °F 63% 29.79 in 10.0 mi SSW 5.8 mph - N/A   Clear
12:53 PM 50.0 °F - 37.0 °F 61% 29.73 in 10.0 mi SSE 6.9 mph - N/A   Clear
1:53 PM 51.1 °F - 39.0 °F 63% 29.71 in 10.0 mi South 6.9 mph - N/A   Clear
2:53 PM 53.6 °F - 39.2 °F 58% 29.66 in 10.0 mi SSW 10.4 mph - N/A   Clear
3:53 PM 53.6 °F - 41.0 °F 62% 29.65 in 10.0 mi SSW 6.9 mph - N/A   Clear
4:53 PM 50.0 °F - 41.0 °F 71% 29.63 in 10.0 mi South 8.1 mph - N/A   Clear
5:53 PM 45.0 °F 42.6 °F 39.0 °F 80% 29.61 in 10.0 mi SW 4.6 mph - N/A   Clear
6:53 PM 48.0 °F - 39.0 °F 71% 29.62 in 10.0 mi SSW 6.9 mph - N/A   Clear
7:42 PM 46.4 °F 38.7 °F 39.2 °F 76% 29.68 in 10.0 mi WNW 20.7 mph 27.6 mph N/A   Scattered Clouds
7:53 PM 51.1 °F - 37.9 °F 61% 29.67 in 10.0 mi WSW 15.0 mph 23.0 mph N/A   Scattered Clouds
8:53 PM 46.9 °F - 37.0 °F 68% 29.66 in 10.0 mi SW 10.4 mph - 0.00 in   Overcast
9:53 PM 46.0 °F 38.8 °F 35.1 °F 66% 29.66 in 10.0 mi West 18.4 mph - N/A   Clear
10:53 PM 46.9 °F - 37.0 °F 68% 29.70 in 10.0 mi WNW 18.4 mph 24.2 mph N/A   Clear
11:53 PM 46.0 °F 38.0 °F 37.9 °F 73% 29.74 in 10.0 mi NW 21.9 mph - N/A   Clear